GFSSGP_850_temp_276.txt.gz
Temp
15 15 15 16 12 10 12 14 15 14 16 16 15 16 14 13 15 15 15 15 16 17 16 15 15 15 15 14 15 15 15 14 15 15 14 14 14 14 14 15 15 14 14 15 14 13 13 13 14
15 15 15 15 11 11 11 13 15 15 16 16 15 15 14 13 14 14 15 16 16 16 16 16 15 15 15 15 14 15 15 15 15 15 15 15 14 14 14 14 14 14 14 12 12 13 13 12 13
15 15 15 11 10 11 12 14 15 16 16 17 15 15 14 14 14 14 14 15 16 15 15 15 15 15 15 14 14 14 14 14 15 15 15 15 14 14 14 14 14 14 13 12 12 12 12 11 12
15 15 13 11 11 12 13 15 15 14 16 16 15 13 14 14 14 14 14 15 15 15 14 14 14 14 14 15 15 14 14 14 14 15 15 14 15 13 14 14 14 13 13 12 11 11 11 11 11
14 14 10 11 12 12 13 13 13 14 15 15 15 14 13 14 14 14 14 14 15 14 14 14 14 14 14 14 14 14 14 14 14 14 14 14 14 14 14 13 13 13 13 13 13 12 11 11 11
13 12 10 10 11 13 13 13 13 14 14 14 14 14 13 13 14 14 15 15 15 14 14 14 14 14 14 14 14 14 14 14 14 13 14 13 14 14 14 13 13 13 13 13 13 12 12 11 11
11 9 10 11 12 13 13 13 13 12 13 14 14 13 13 13 14 14 14 14 14 15 14 14 14 13 13 13 13 13 13 14 14 13 14 13 13 14 14 14 13 13 13 13 13 12 12 11 11
13 9 11 11 11 13 11 12 13 13 13 14 14 12 13 13 13 13 13 14 14 14 14 13 13 13 14 13 13 13 12 13 13 13 13 13 13 13 13 14 13 13 13 13 13 12 12 11 12
13 9 9 12 11 12 11 11 12 12 12 13 14 13 13 13 13 13 13 14 14 14 14 14 14 13 13 13 13 13 13 13 13 12 13 13 13 13 13 12 13 13 13 12 12 12 12 11 11
9 7 10 10 10 10 10 10 11 12 10 12 13 13 12 12 12 12 12 13 13 13 13 13 13 13 13 13 13 13 13 12 13 12 12 12 13 13 13 12 12 12 12 12 12 12 11 11 11
9 8 9 11 10 10 10 9 10 9 10 11 12 12 12 12 12 12 12 12 12 12 12 12 12 12 12 12 13 12 12 12 12 11 11 12 12 12 12 13 12 12 11 11 11 11 11 11 11
10 10 10 10 10 10 9 10 9 9 11 12 11 11 12 12 12 12 12 12 12 11 11 11 11 11 11 11 11 12 12 12 12 12 11 12 11 11 11 12 12 11 11 11 11 11 11 11 11
10 9 10 9 10 10 9 8 8 9 12 11 11 11 11 11 11 12 12 12 12 11 11 11 11 11 11 11 11 10 10 10 10 10 11 11 9 11 11 11 11 11 11 11 11 12 11 10 10
9 8 8 9 9 9 8 7 8 10 11 10 10 11 11 12 12 12 12 12 11 11 10 10 10 10 10 10 10 10 10 10 9 9 9 10 10 11 10 10 10 10 11 11 12 11 11 10 10
8 9 9 8 8 8 7 6 4 9 10 10 11 11 10 10 11 12 12 11 10 10 9 9 9 9 9 9 9 10 10 10 10 9 9 9 9 9 10 8 9 10 10 11 11 11 11 10 10
7 7 8 7 5 7 8 7 9 8 8 8 8 9 9 10 11 11 11 10 10 9 8 8 8 8 8 8 8 8 8 8 9 9 9 8 9 9 8 8 9 8 10 10 10 11 11 10 10
5 9 8 6 4 4 6 6 6 8 7 7 7 8 9 9 10 10 10 9 8 8 7 7 7 7 7 7 7 8 8 8 8 8 8 9 8 9 9 7 7 8 7 9 10 10 10 11 10
10 9 7 5 5 3 4 4 5 6 6 7 10 10 9 8 9 9 8 8 7 8 8 8 8 8 8 8 8 8 8 7 7 7 7 8 8 8 7 7 7 7 7 7 9 9 10 10 11
5 6 5 4 4 3 3 2 4 4 5 6 8 9 8 8 8 8 8 8 9 9 10 10 9 8 7 6 5 5 5 6 5 5 5 5 5 6 6 6 6 6 7 7 7 10 10 9 10
5 5 5 4 4 4 2 3 3 3 5 8 8 7 7 7 7 8 9 9 9 9 9 8 7 6 4 3 3 1 1 1 2 3 3 3 2 3 4 5 5 5 6 7 8 8 9 9 9
5 5 5 5 3 2 1 4 6 7 7 7 7 7 7 7 8 8 9 9 8 8 7 6 4 3 2 1 1 1 1 1 1 1 1 1 0 0 2 3 3 4 4 6 8 9 6 9 9
8 4 4 3 3 2 3 3 5 6 6 5 5 6 7 7 7 7 7 7 7 6 4 3 2 1 -0 -0 -0 -0 -1 -1 -1 -1 -0 -0 -1 -0 -0 0 0 2 3 3 6 7 7 7 9
5 3 3 3 1 1 3 0 4 4 5 4 3 6 6 6 6 7 6 5 5 3 1 -0 0 0 -0 -1 -2 -2 -2 -3 -2 -1 -2 -2 -2 -2 -2 -1 -1 -0 1 2 3 6 8 8 6
3 3 2 1 1 -2 3 3 4 5 6 6 4 6 6 6 6 5 5 4 4 2 1 -0 -1 -1 -2 -2 -2 -3 -4 -3 -3 -2 -3 -2 -2 -2 -3 -3 -1 -1 -0 1 2 3 5 5 6
3 2 -1 1 -1 2 2 3 5 5 4 6 4 5 6 5 5 5 5 4 4 1 -0 -1 -2 -2 -2 -3 -3 -3 -3 -3 -3 -3 -4 -4 -4 -5 -4 -4 -3 -2 -1 -0 -0 1 3 4 5
3 1 0 4 2 1 1 1 5 4 4 5 6 5 5 6 6 5 4 3 1 -1 -2 -3 -3 -3 -3 -4 -4 -4 -4 -4 -3 -4 -4 -4 -4 -5 -5 -5 -5 -3 -3 -2 -1 -0 2 3 4
2 0 1 -5 -7 -3 0 2 4 3 2 3 4 4 5 6 5 4 3 2 1 -1 -2 -4 -4 -4 -4 -5 -5 -4 -4 -4 -4 -4 -4 -4 -5 -5 -5 -6 -5 -5 -4 -2 -1 -0 1 3 4
2 0 1 -3 3 2 0 0 4 7 7 1 1 3 5 6 4 3 3 2 -0 -2 -3 -4 -4 -5 -5 -5 -5 -5 -5 -4 -4 -4 -4 -4 -4 -5 -5 -5 -5 -4 -4 -3 -1 0 1 2 5
0 -1 -3 -1 -1 -0 -3 3 1 3 5 0 -1 4 3 4 3 2 2 1 -1 -2 -3 -4 -4 -4 -5 -5 -6 -5 -4 -4 -4 -5 -4 -3 -3 -4 -5 -5 -5 -4 -4 -3 -2 -1 0 2 4
2 1 -1 -0 0 -4 -4 1 4 2 1 1 2 4 4 3 2 2 1 0 -1 -2 -3 -4 -5 -4 -5 -6 -6 -5 -5 -4 -5 -4 -4 -4 -4 -3 -4 -4 -4 -4 -4 -3 -2 -1 -0 2 4

GFSSGP_850_temp_279.txt.gz
Temp
15 15 15 15 14 12 13 14 14 15 15 16 15 15 16 13 16 17 15 15 16 16 16 14 14 14 14 15 15 15 15 14 14 14 14 14 14 14 14 14 14 14 14 14 14 13 13 14 14
15 15 15 14 12 12 13 13 14 15 16 16 15 14 14 14 14 14 15 15 15 16 15 14 14 14 15 15 14 15 15 15 14 14 14 14 14 14 14 14 14 14 14 13 13 13 13 13 14
15 15 15 12 11 12 13 13 15 15 15 15 14 14 14 13 13 14 14 15 15 15 15 14 14 14 14 15 15 14 14 14 15 15 14 14 14 15 14 14 14 14 14 14 12 13 13 13 13
14 14 13 12 12 12 13 14 14 14 16 16 15 14 13 13 13 14 14 15 15 15 14 14 14 14 14 14 14 14 14 14 14 14 14 14 14 14 14 14 14 14 14 14 13 13 13 13 13
14 13 11 11 11 12 12 13 13 14 14 15 15 13 13 13 13 14 14 15 15 15 14 14 14 14 13 13 14 14 14 14 14 14 14 14 14 14 13 14 14 14 13 13 13 13 13 12 12
13 12 11 11 11 12 12 12 13 13 13 14 14 14 13 13 13 14 14 15 15 15 14 13 13 13 13 13 13 13 13 13 13 14 13 14 14 14 13 13 13 13 13 13 12 13 13 12 11
11 10 11 11 11 13 13 12 12 12 13 13 14 13 13 13 13 14 14 14 14 14 14 13 13 13 14 13 13 13 13 13 13 13 13 13 13 13 14 13 13 13 13 13 13 12 12 12 12
13 10 10 10 11 12 11 12 12 12 12 13 13 12 12 13 13 13 13 14 14 14 14 14 13 13 13 13 13 13 13 13 12 13 13 12 13 13 13 13 13 13 13 13 12 12 12 12 12
13 9 9 11 10 12 11 11 12 12 12 13 14 13 13 13 13 13 13 13 13 13 14 14 14 14 14 14 13 13 12 12 12 12 13 12 12 12 12 13 13 13 13 13 13 13 12 12 12
10 8 10 10 10 10 10 10 11 11 10 12 13 12 12 12 12 12 13 13 13 12 12 12 13 13 13 13 13 13 13 13 13 12 12 12 12 12 12 12 12 12 12 13 12 12 12 12 12
8 9 8 10 10 10 10 10 11 10 10 12 12 12 12 12 12 12 12 12 12 11 11 11 11 11 11 11 11 11 11 11 12 12 12 12 12 12 11 11 12 12 12 12 12 12 11 11 11
10 9 10 10 10 10 9 9 9 9 11 12 11 11 11 11 12 12 12 12 12 11 11 11 11 11 11 11 11 11 11 10 10 10 10 10 11 10 11 11 11 11 11 11 11 12 11 11 11
9 9 9 9 9 9 9 8 8 8 11 10 10 11 11 11 11 11 11 12 11 11 10 10 10 10 10 10 11 11 11 11 11 11 10 10 10 10 11 10 11 11 11 11 11 11 11 11 11
9 8 8 8 8 8 7 7 8 9 10 10 10 11 11 11 11 12 11 11 11 10 10 9 9 9 10 10 11 11 11 11 10 10 10 10 9 10 10 10 9 10 11 11 11 11 11 11 11
8 8 8 6 7 7 6 7 5 8 9 9 10 10 11 11 10 10 11 11 11 10 10 9 9 9 9 9 10 10 10 10 10 10 9 9 9 9 9 9 10 10 9 10 10 10 10 11 11
7 7 9 7 5 7 8 9 8 7 8 9 9 9 9 9 9 10 10 10 10 9 9 9 8 8 8 8 8 8 8 9 9 9 8 8 8 8 9 9 8 9 9 9 10 10 10 10 11
6 9 8 8 4 4 6 7 7 7 8 8 9 8 8 8 8 9 9 9 9 9 8 8 8 8 8 8 8 8 8 8 8 8 8 8 8 8 8 8 9 9 9 11 9 8 10 10 10
9 9 8 7 5 3 4 4 5 7 6 8 7 8 7 8 8 8 8 8 8 8 8 9 9 9 9 8 8 8 8 7 7 7 7 7 7 7 7 7 8 8 7 7 9 9 8 9 10
6 7 7 5 4 3 3 2 4 5 4 5 6 7 7 8 8 8 8 8 8 9 9 9 9 8 8 7 7 6 6 5 5 5 5 5 5 5 5 5 6 6 6 5 7 7 9 8 9
6 6 6 5 4 4 2 4 4 2 3 5 7 7 7 7 7 7 8 9 9 9 9 9 8 8 7 5 3 2 2 3 3 3 3 3 3 3 3 3 3 3 4 4 4 7 7 7 7
5 6 6 6 3 2 2 6 6 6 6 6 6 7 7 7 7 8 8 9 9 9 9 8 7 6 5 3 2 2 2 2 3 2 2 2 2 2 2 2 2 2 2 3 2 3 6 6 8
9 4 4 4 4 5 3 5 6 5 5 5 5 6 7 7 7 8 8 9 9 8 7 7 6 5 3 1 1 0 0 0 1 0 0 0 1 1 1 1 1 1 1 1 1 1 4 5 5
6 3 3 3 2 2 3 2 6 4 6 5 4 6 6 6 7 8 8 6 6 6 6 5 4 3 1 0 -1 -1 -1 -1 -0 0 -0 1 1 1 0 -0 -0 0 -0 -1 -0 0 1 4 4
2 3 2 1 2 0 3 3 6 6 6 7 4 6 7 6 7 7 7 6 5 5 4 4 3 1 -0 -1 -1 -2 -2 -2 -2 -1 -1 0 0 -1 -1 -1 -1 -1 -1 -1 -1 0 1 2 3
3 2 1 2 0 3 1 2 6 6 5 5 5 5 6 6 7 7 6 5 5 5 4 4 2 1 -1 -2 -2 -2 -2 -3 -3 -2 -2 -2 -1 -2 -3 -4 -4 -2 -2 -2 -2 -1 0 2 3
3 2 1 4 4 3 2 2 8 4 4 5 6 6 5 6 7 6 4 4 4 4 3 2 0 -1 -1 -2 -2 -2 -3 -4 -4 -3 -3 -3 -3 -3 -4 -5 -5 -5 -5 -4 -3 -2 -1 -1 1
2 1 1 -5 -8 -1 2 4 5 4 2 2 3 4 5 6 6 5 5 4 3 2 2 1 -1 -1 -2 -3 -3 -3 -3 -4 -5 -4 -4 -3 -4 -4 -4 -4 -4 -5 -5 -5 -3 -3 -2 -1 -0
2 1 2 -2 4 3 3 2 7 9 8 3 1 2 5 6 6 6 4 3 2 2 1 0 -1 -2 -3 -3 -3 -4 -4 -4 -4 -5 -4 -4 -4 -5 -5 -4 -4 -5 -5 -5 -5 -4 -2 -2 -1
-0 -1 -2 -0 -0 2 1 6 3 5 6 2 1 4 5 6 6 5 4 3 2 2 1 0 -1 -2 -2 -3 -3 -4 -4 -5 -5 -5 -4 -4 -4 -4 -5 -5 -4 -4 -5 -5 -5 -4 -3 -2 -1
2 2 0 1 1 -2 -2 3 5 3 2 2 3 5 6 5 5 4 2 2 2 1 1 0 -1 -1 -3 -3 -4 -4 -5 -6 -6 -5 -5 -5 -4 -4 -5 -5 -4 -4 -5 -5 -5 -4 -3 -3 -1

GFSSGP_850_temp_285.txt.gz
Temp
15 15 15 17 19 20 20 22 23 22 22 21 20 21 23 20 20 19 15 14 14 15 14 15 15 15 15 15 15 15 15 15 15 15 15 15 15 15 15 15 15 15 15 15 15 15 14 15 15
14 15 16 19 19 20 21 23 22 22 22 20 19 20 21 19 17 16 16 15 14 14 15 14 14 14 14 14 14 14 14 14 14 14 15 15 15 15 15 15 15 15 15 15 15 14 14 14 14
15 15 18 20 20 20 20 21 22 22 20 20 21 19 20 18 16 16 14 14 15 15 15 15 15 14 14 14 14 14 14 14 14 14 14 14 14 14 14 15 15 15 15 15 15 15 14 14 14
15 16 18 18 19 21 20 21 22 21 20 20 20 21 17 15 16 14 13 14 14 14 14 15 15 14 14 14 14 14 14 14 13 14 14 14 14 14 14 14 14 14 14 14 14 14 15 13 14
15 18 19 19 20 21 21 20 20 21 21 21 20 20 18 15 14 14 14 14 14 14 14 14 14 14 14 14 14 14 14 13 14 13 13 13 13 14 14 14 14 13 13 14 14 14 14 13 14
17 19 19 19 20 21 21 20 19 20 21 20 20 20 18 14 14 14 14 13 14 14 14 13 14 14 14 15 14 13 14 13 13 13 13 13 13 13 13 13 14 13 13 13 14 14 13 13 13
18 19 19 20 20 20 20 18 19 20 21 20 18 20 17 15 13 13 13 13 14 14 14 14 14 14 14 14 14 13 14 13 14 13 13 13 13 13 13 12 13 13 13 13 13 13 13 13 13
17 20 19 20 20 19 20 18 18 18 20 16 17 20 19 15 13 13 13 13 12 14 14 14 14 14 14 14 14 14 14 14 14 13 13 13 13 13 12 12 12 12 12 13 13 13 12 13 12
16 18 18 19 19 20 17 18 17 15 17 16 17 17 14 13 13 13 14 13 13 12 13 13 13 13 13 13 13 14 13 13 13 13 13 13 13 13 13 13 13 12 12 12 12 12 12 12 12
17 17 19 20 20 19 18 17 18 17 17 17 16 14 13 13 13 14 14 14 13 12 11 12 12 12 12 12 12 13 13 12 12 12 12 12 12 13 12 12 12 12 12 12 12 12 12 12 12
16 17 20 18 17 15 17 16 16 17 18 18 18 16 14 13 13 13 13 13 13 12 11 11 12 12 12 12 12 12 12 12 12 12 12 12 11 12 12 13 12 11 11 12 12 12 12 12 12
16 17 17 16 14 14 16 15 15 16 17 15 15 14 13 13 13 13 13 13 12 11 10 11 12 12 11 11 11 11 11 11 11 11 11 11 11 11 11 12 12 12 11 11 11 12 13 11 12
15 17 15 14 12 13 13 14 15 15 15 14 13 11 13 13 13 12 12 11 11 10 10 10 11 11 11 11 11 10 10 10 10 11 10 11 11 11 11 11 11 11 12 11 11 11 11 12 11
15 16 14 13 13 12 12 14 12 15 15 14 13 12 12 12 12 12 11 11 11 10 10 10 11 11 11 11 11 11 11 11 11 10 10 10 10 10 10 10 11 11 11 11 10 10 11 10 11
13 13 14 14 13 13 11 13 14 14 12 13 12 12 12 12 11 11 11 11 10 9 9 10 10 10 10 10 10 10 10 10 10 11 11 10 9 9 9 8 9 10 10 11 11 11 10 10 11
13 14 15 16 13 12 11 17 17 14 13 13 13 13 12 12 10 10 9 9 9 8 9 10 10 9 9 9 10 10 10 10 10 10 10 9 8 7 7 7 7 7 8 8 10 10 11 10 9
13 16 15 13 12 13 12 16 16 12 13 14 14 13 13 12 10 9 9 8 8 8 8 9 9 9 9 10 10 10 10 10 10 9 8 7 7 6 5 5 5 5 5 6 6 9 10 10 10
17 15 16 17 12 11 13 13 16 13 13 14 15 14 13 12 10 9 8 7 7 8 9 9 9 9 9 10 10 9 9 8 8 7 6 6 5 5 5 5 4 4 4 5 5 5 7 9 9
13 15 16 15 10 10 13 14 16 17 15 13 14 14 14 12 10 8 7 7 8 8 8 9 9 9 9 9 9 8 8 8 7 6 5 4 4 4 4 4 4 4 3 3 3 4 4 5 7
13 14 15 12 9 9 13 13 15 17 17 15 14 13 14 12 10 8 7 7 7 8 8 9 9 9 8 8 8 7 6 6 5 5 4 3 3 3 3 3 3 2 2 2 2 2 3 4 4
12 13 14 12 10 10 10 15 16 14 12 11 11 12 13 11 10 8 8 7 6 6 8 8 8 8 8 8 7 6 4 3 1 -0 -1 -1 -1 -0 1 2 2 2 1 0 0 1 1 2 3
12 10 10 10 12 14 11 14 18 16 13 12 11 12 12 11 10 9 8 7 6 7 8 8 8 8 7 7 6 4 3 1 -1 -1 -1 -1 -1 -1 -1 0 1 1 0 -1 -0 0 0 1 1
11 9 9 9 11 10 12 12 18 14 14 14 12 11 11 10 9 8 7 6 7 8 8 8 8 7 6 6 5 3 2 -0 -1 -1 -1 -1 -1 -2 -2 -2 -2 -2 -2 -1 -1 -2 -1 -0 0
8 8 9 9 10 10 13 13 17 17 16 16 14 12 11 10 9 8 6 7 7 8 8 8 7 7 6 5 3 2 1 -0 -1 -1 -2 -1 -2 -1 -1 -2 -3 -3 -3 -2 -2 -2 -2 -2 -1
8 9 9 10 9 12 9 10 16 15 14 15 14 13 11 10 8 8 6 5 7 7 7 6 6 6 5 4 2 2 1 -1 -2 -3 -3 -4 -4 -3 -3 -3 -4 -5 -4 -4 -4 -4 -3 -3 -2
8 9 11 13 13 13 7 9 15 13 13 13 11 11 12 10 9 8 6 6 8 7 6 6 6 5 4 3 2 1 -0 -2 -3 -4 -5 -6 -6 -6 -5 -5 -5 -5 -5 -5 -4 -4 -4 -4 -3
7 7 8 6 1 9 14 13 14 12 11 10 10 9 9 10 8 7 5 7 7 7 6 5 5 4 4 2 1 0 -1 -1 -3 -4 -5 -6 -6 -6 -6 -5 -5 -6 -6 -5 -5 -5 -4 -4 -4
6 7 8 7 10 12 12 11 15 12 13 13 11 11 11 10 8 7 5 6 6 6 5 5 4 4 3 1 0 -1 -1 -2 -4 -5 -5 -5 -5 -5 -5 -4 -4 -4 -5 -5 -5 -5 -5 -5 -4
4 5 4 7 9 12 13 15 13 15 14 10 12 12 12 10 8 7 5 5 5 5 5 4 4 3 2 1 0 -1 -2 -3 -3 -4 -4 -5 -5 -5 -5 -5 -5 -4 -4 -5 -5 -5 -5 -5 -5
8 7 7 10 8 9 8 13 10 13 14 13 11 10 9 9 8 7 5 4 5 5 4 4 4 3 2 1 -0 -1 -2 -2 -2 -3 -4 -4 -4 -5 -5 -4 -4 -4 -4 -4 -5 -5 -5 -5 -5

GFSSGP_850_temp_291.txt.gz
Temp
15 15 15 16 13 12 13 15 17 18 20 20 20 18 16 16 16 15 14 14 15 15 14 15 15 15 15 15 15 15 15 15 15 15 15 15 15 15 15 15 15 15 16 16 15 15 14 15 14
15 15 15 16 12 12 12 16 18 19 19 20 20 19 18 15 15 14 14 14 15 15 14 15 15 15 15 15 15 15 15 15 14 14 15 15 15 15 15 15 15 15 15 15 15 15 15 14 14
15 15 15 12 11 12 13 18 19 19 20 20 19 18 16 15 16 14 14 14 14 14 14 14 15 15 15 15 15 15 15 15 15 14 14 15 15 14 14 15 15 15 15 15 15 15 15 14 14
15 15 15 13 13 14 15 18 20 18 20 20 19 14 15 15 16 14 14 14 14 14 15 15 15 15 15 15 15 15 15 15 15 15 15 15 15 15 15 15 14 14 14 14 14 14 14 14 14
14 14 12 12 13 15 16 19 20 19 19 20 20 15 14 14 14 14 14 14 14 14 14 15 15 15 15 15 15 15 15 14 14 14 14 14 14 14 14 14 14 14 15 14 14 14 14 14 14
14 14 12 12 13 15 17 20 20 19 20 19 18 15 15 14 14 14 14 14 14 15 14 14 14 14 15 14 14 14 14 14 14 14 14 14 14 14 14 14 13 13 14 14 14 14 14 14 14
12 11 12 13 14 15 19 20 17 18 18 19 19 15 15 14 14 14 14 14 14 15 15 15 15 14 14 14 14 14 14 13 13 14 14 14 13 13 13 14 14 14 14 13 14 14 14 14 14
14 12 13 13 13 15 18 18 19 19 17 18 18 13 13 14 14 14 14 14 15 15 15 15 15 15 14 14 14 14 14 14 14 14 14 14 14 14 14 13 13 13 13 14 13 13 14 14 14
14 11 11 13 14 16 18 17 18 17 18 18 17 16 17 15 14 14 14 14 14 14 14 14 14 14 14 14 13 13 13 13 14 14 14 14 14 14 14 14 14 14 13 13 12 13 13 13 13
12 11 12 14 15 15 16 16 17 17 16 16 15 15 15 15 14 14 14 14 13 14 14 14 13 13 13 13 13 13 13 12 12 12 12 12 12 12 12 12 12 13 13 13 12 12 12 12 13
13 11 13 14 15 15 15 16 16 16 15 16 15 15 15 15 14 14 14 14 13 13 13 13 13 12 12 12 12 12 12 12 12 12 12 12 12 12 12 12 12 12 12 12 12 12 12 12 12
12 14 14 14 15 15 14 14 14 15 16 16 17 17 16 15 14 14 14 14 13 12 12 12 12 11 11 12 12 12 12 11 11 11 11 11 12 12 12 12 12 12 12 12 12 12 12 13 11
12 13 14 14 13 14 13 12 12 13 16 15 15 15 15 14 14 14 14 13 13 12 12 11 11 11 11 11 11 11 11 11 11 11 11 11 11 11 11 11 11 11 11 12 12 11 11 11 12
13 13 13 14 13 13 12 11 12 14 16 15 15 14 14 14 13 13 13 13 12 12 11 10 11 11 11 11 11 11 11 11 11 11 11 11 11 10 10 10 10 10 10 9 10 11 11 10 10
12 12 12 12 12 12 12 9 8 13 14 15 14 14 14 14 13 13 13 12 12 11 10 10 10 10 10 11 11 11 11 11 11 10 10 10 10 10 10 9 9 9 8 8 8 8 8 9 9
11 12 10 12 10 10 12 9 11 14 13 14 14 13 13 13 13 12 12 12 11 11 10 10 10 10 10 10 10 10 10 10 10 10 10 10 9 9 9 8 8 7 7 7 7 6 5 6 7
9 8 8 11 10 9 9 9 12 13 12 13 13 13 13 13 12 12 12 11 11 11 10 10 9 10 10 10 10 10 10 10 10 9 9 9 8 8 7 7 7 6 6 6 6 5 5 4 5
8 8 10 10 10 9 8 7 8 12 12 12 13 13 13 12 12 12 11 10 10 10 10 9 10 10 10 10 10 10 10 9 9 8 8 8 7 7 6 6 5 5 5 4 4 4 4 4 4
11 11 10 9 9 9 7 8 8 9 11 11 12 13 13 12 12 11 10 9 9 9 9 9 9 10 9 9 9 9 10 9 9 8 8 7 7 6 5 5 4 3 3 3 3 2 3 4 3
9 10 10 10 8 8 9 8 8 8 10 11 11 12 13 12 11 10 10 9 9 9 9 9 9 9 9 9 8 8 8 8 8 7 7 6 5 4 4 4 3 3 2 2 2 1 1 1 2
9 9 10 10 8 8 7 7 8 10 9 12 12 14 14 13 10 9 9 9 8 8 9 9 9 9 8 8 8 7 7 7 7 7 7 6 5 4 4 3 2 2 1 1 1 0 -0 -0 0
9 9 10 10 8 6 8 6 8 12 10 9 10 11 13 12 11 10 10 9 8 7 8 8 8 8 7 7 7 7 7 7 7 6 6 5 4 4 3 2 1 0 -0 -1 -1 -1 -1 -2 -2
8 9 9 9 8 6 8 4 8 11 10 9 7 10 12 12 11 10 10 10 8 8 8 8 8 8 7 7 7 6 6 6 6 5 5 4 4 3 2 1 -0 -2 -4 -4 -4 -3 -3 -3 -3
7 7 7 6 5 1 6 6 7 10 11 11 8 10 11 11 11 10 10 9 8 7 7 8 8 7 7 6 6 6 6 6 5 5 4 4 3 2 1 -1 -2 -5 -6 -5 -5 -4 -4 -4 -4
7 6 3 3 -0 2 6 6 7 10 11 10 7 9 11 11 10 10 9 8 7 7 7 8 7 7 6 6 6 6 5 5 4 4 4 3 2 1 -0 -2 -4 -5 -6 -6 -6 -5 -5 -5 -5
5 5 4 5 4 5 5 6 9 9 10 11 11 11 11 10 10 10 9 8 8 8 8 7 7 7 6 6 5 5 5 5 4 4 3 2 1 -0 -1 -3 -4 -5 -6 -6 -6 -6 -5 -5 -5
5 4 6 2 -3 1 5 7 9 10 9 7 8 10 10 10 10 9 9 9 8 8 7 7 7 6 5 5 5 5 5 5 4 4 3 2 1 -1 -1 -2 -3 -4 -5 -6 -6 -6 -6 -5 -5
5 5 5 1 4 3 5 7 10 8 7 7 6 7 10 10 10 10 9 9 8 7 6 6 6 6 5 5 5 5 4 4 4 3 2 2 1 -0 -2 -3 -4 -4 -5 -6 -7 -6 -5 -5 -4
3 3 3 4 4 3 4 7 7 9 8 5 5 9 10 11 10 10 9 8 8 7 6 6 6 5 5 5 5 4 4 3 3 2 2 1 0 -1 -2 -4 -4 -4 -4 -5 -5 -5 -4 -4 -4
4 4 5 6 6 2 2 6 8 7 8 6 6 9 11 11 11 10 9 9 8 7 6 6 5 5 4 4 4 4 3 3 3 2 2 1 0 -1 -3 -3 -4 -4 -5 -5 -4 -4 -4 -4 -4